Regional Weather Roundup
Issued by NWS Sioux Falls, SD

Home | Current Version | Previous Version | Text Only | Print | Product List | Glossary On
Versions: 1 2 3 4 5 6 7 8 9 10 11 12 13 14 15 16 17 18 19 20 21 22 23 24 25 26 27 28 29 30 31 32 33 34 35 36 37 38 39 40 41 42 43 44 45 46 47 48 49 50
000
ASUS43 KFSD 151510
RWRFSD

WEATHER ROUNDUP FOR SE SOUTH DAKOTA/SW MINNESOTA/NW IOWA
NATIONAL WEATHER SERVICE SIOUX FALLS SD
900 AM CST FRI DEC 15 2017

NOTE: "FAIR" INDICATES FEW OR NO CLOUDS BELOW 12,000 FEET WITH NO
SIGNIFICANT WEATHER AND OR OBSTRUCTIONS TO VISIBILITY.


SDZ038>040-050-052>070-151600-
SOUTHEAST SOUTH DAKOTA

CITY           SKY/WX    TMP DP  RH WIND       PRES   REMARKS
BROOKINGS      CLOUDY    29  27  92 W8        29.87R WCI  21
CHAMBERLAIN    CLOUDY    28  25  91 CALM      29.87F
HURON          MOCLDY    31  25  78 SW6       29.85F WCI  25
MADISON        FAIR      28  28 100 W13       29.87R WCI  18
MITCHELL       PTCLDY    30  24  78 W10       29.91S WCI  21
SIOUX FALLS    CLOUDY    32  27  81 W8        29.90S WCI  25
WINNER         FAIR      29  21  72 S10       29.87F WCI  20
YANKTON        CLOUDY    32  25  75 SW10      29.92F WCI  24
$$

MNZ071-072-080-081-089-090-097-098-151600-
SOUTHWEST MINNESOTA

CITY           SKY/WX    TMP DP  RH WIND       PRES   REMARKS
FAIRMONT       FLURRIES  30  27  88 W12       29.89S WCI  20
JACKSON        FLURRIES  32  28  86 MISG      29.88F
LUVERNE        CLOUDY    30  27  86 W6        29.89F WCI  24
MARSHALL       MIX PCPN  31  28  89 W9        29.88S WCI  23
MONTEVIDEO     LGT SNOW  27  25  93 E3        29.88S
PIPESTONE      CLOUDY    28  27  93 W8        29.86S WCI  20
REDWOOD FALLS  CLOUDY    32  28  85 W6        29.87F WCI  26
TRACY          CLOUDY    32  28  86 W5        29.86F WCI  27
WINDOM         FLURRIES  30  19  64 SW8       29.86F WCI  23
WORTHINGTON    MOCLDY    30  27  88 W12       29.88F WCI  20
$$

IAZ001>003-012>014-020>022-031-032-NEZ013-014-SDZ071-151600-
NORTHWEST IOWA

CITY           SKY/WX    TMP DP  RH WIND       PRES   REMARKS
CHEROKEE       MOCLDY    32  28  83 SW8       29.94S WCI  25
DENISON        CLOUDY    32  25  74 SW12      29.99F WCI  23
ESTHERVILLE    CLOUDY    30  27  88 W10       29.89S WCI  21
LE MARS        CLOUDY    32  27  80 SW9       29.93F WCI  24
ORANGE CITY    MOCLDY    34  30  86 W12       29.91F WCI  25
SHELDON        CLOUDY    32  28  86 W14       29.89F WCI  22
SIOUX CITY     CLOUDY    33  25  72 W8        29.97F WCI  26
SPENCER        CLOUDY    32  28  85 W12       29.90F WCI  23
STORM LAKE     MOSUNNY   32  27  80 W14       29.93S WCI  22
$$

ABBREVIATIONS USED IN REMARKS
   TC - TEMPERATURE IN CELSIUS
  WCI - WIND CHILL INDEX
   HX - HEAT INDEX
  VSB - VISIBILITY





USA.gov is the U.S. government's official web portal to all federal, state and local government web resources and services.